TimeEDT,TemperatureF,Dew PointF,Humidity,Sea Level PressureIn,VisibilityMPH,Wind Direction,Wind SpeedMPH,Gust SpeedMPH,PrecipitationIn,Events,Conditions,WindDirDegrees,DateUTC
12:53 AM,70.0,64.0,81,29.96,10.0,Calm,Calm,-,N/A,,Clear,0,2013-10-06 04:53:00
1:53 AM,69.1,63.0,81,29.95,10.0,Calm,Calm,-,N/A,,Clear,0,2013-10-06 05:53:00
2:53 AM,68.0,63.0,84,29.95,10.0,SSE,3.5,-,N/A,,Clear,160,2013-10-06 06:53:00
3:53 AM,68.0,63.0,84,29.93,10.0,SSE,4.6,-,N/A,,Clear,160,2013-10-06 07:53:00
4:53 AM,68.0,62.1,81,29.92,10.0,Calm,Calm,-,N/A,,Clear,0,2013-10-06 08:53:00
5:53 AM,66.9,62.1,84,29.93,10.0,SSE,3.5,-,N/A,,Clear,150,2013-10-06 09:53:00
6:53 AM,66.0,62.1,87,29.93,10.0,SE,3.5,-,N/A,,Clear,140,2013-10-06 10:53:00
7:53 AM,66.0,61.0,84,29.93,10.0,SSE,5.8,-,N/A,,Clear,160,2013-10-06 11:53:00
8:53 AM,68.0,62.1,81,29.94,10.0,Calm,Calm,-,N/A,,Clear,0,2013-10-06 12:53:00
9:53 AM,71.1,62.1,73,29.94,10.0,Variable,3.5,-,N/A,,Clear,0,2013-10-06 13:53:00
10:53 AM,73.9,62.1,66,29.94,10.0,South,9.2,-,N/A,,Clear,170,2013-10-06 14:53:00
11:53 AM,75.9,61.0,60,29.91,10.0,Variable,6.9,20.7,N/A,,Clear,0,2013-10-06 15:53:00
12:53 PM,81.0,61.0,50,29.89,10.0,South,8.1,-,N/A,,Mostly Cloudy,190,2013-10-06 16:53:00
1:53 PM,80.1,60.1,50,29.85,10.0,Variable,5.8,20.7,N/A,,Partly Cloudy,0,2013-10-06 17:53:00
2:53 PM,81.0,57.9,45,29.81,10.0,South,8.1,18.4,N/A,,Partly Cloudy,180,2013-10-06 18:53:00
3:53 PM,80.1,57.9,47,29.80,10.0,South,8.1,16.1,N/A,,Mostly Cloudy,190,2013-10-06 19:53:00
4:53 PM,79.0,59.0,50,29.78,10.0,Variable,5.8,-,N/A,,Partly Cloudy,0,2013-10-06 20:53:00
5:53 PM,78.1,57.9,50,29.77,10.0,Variable,5.8,-,N/A,,Clear,0,2013-10-06 21:53:00
6:53 PM,75.9,57.9,54,29.77,10.0,Variable,3.5,-,N/A,,Scattered Clouds,0,2013-10-06 22:53:00
7:53 PM,75.0,57.9,55,29.77,10.0,Calm,Calm,-,N/A,,Clear,0,2013-10-06 23:53:00
8:53 PM,73.9,59.0,59,29.77,10.0,Variable,3.5,-,N/A,,Overcast,0,2013-10-07 00:53:00
9:53 PM,66.0,60.1,81,29.82,10.0,NW,16.1,23.0,0.00,Rain,Light Rain,310,2013-10-07 01:53:00
10:23 PM,59.0,55.4,88,29.87,10.0,WNW,10.4,18.4,0.00,Rain,Light Rain,300,2013-10-07 02:23:00
10:53 PM,57.0,54.0,89,29.84,10.0,West,6.9,16.1,0.00,Rain,Light Rain,280,2013-10-07 02:53:00
11:34 PM,55.4,53.6,94,29.90,2.5,West,8.1,-,0.07,Rain,Rain,260,2013-10-07 03:34:00
11:41 PM,55.4,53.6,94,29.90,5.0,Variable,6.9,-,0.08,Rain,Rain,0,2013-10-07 03:41:00
11:53 PM,55.0,53.1,93,29.88,3.0,West,6.9,-,0.11,Rain,Rain,270,2013-10-07 03:53:00
11:55 PM,55.4,53.6,94,29.90,2.5,Variable,6.9,-,0.01,Rain,Heavy Rain,0,2013-10-07 03:55:00